Zurück zum Katalog

STAR ONE C2

AktivKommunikationGEO
NORAD 32768·PAYLOAD·🇧🇷 Brazil

Gestartet Apr 18, 2008 von Guiana Space Centre

Loading…

TLE

AktuellSource: Space-Track

Epoche: Sep 14, 2026, 11:46 UTC

1 32768U 08018B   26257.49076610 -.00000284  00000-0  00000-0 0  9993
2 32768   1.4623  81.4492 0002515  99.8148 283.8974  1.00271399 67550

Verfolge STAR ONE C2 in Echtzeit mit AllMySat

Download on the App Store